Simultaneous Nadir Overpasses (SNOs) Predictions

Prediction of SNOs between METOP-B and NOAA-19 Satellite Orbit:

Table of predicted SNOs for the next 14.0 days since TLE Epoch: 8/23/2019
Index Date (METOP-B) Time (METOP-B) Lat,Lon (METOP-B) SZA (METOP-B ) Date (NOAA-19) Time (NOAA-19) Lat,Lon (NOAA-19) SZA (NOAA-19 ) Distance(km) Time Diff (sec)
1 08/29/2019 04:28:29 79.46, 130.18 70.43 08/29/2019 04:27:18 79.49, 130.08 70.42 3.13 71
2 08/29/2019 05:19:10 -79.47, -62.43 109.56 08/29/2019 05:18:12 -79.47, -62.46 109.58 0.88 58
3 08/29/2019 06:09:51 79.45, 104.73 70.43 08/29/2019 06:09:18 79.46, 104.79 70.44 1.91 33
4 08/29/2019 07:00:32 -79.46, -87.89 109.55 08/29/2019 07:00:12 -79.44, -87.75 109.56 3.27 20
5 08/29/2019 07:51:12 79.47, 79.54 70.48 08/29/2019 07:51:18 79.44, 79.51 70.45 3.33 6
6 08/29/2019 08:41:54 -79.44,-113.34 109.55 08/29/2019 08:42:13 -79.45,-113.31 109.53 0.96 19
7 08/29/2019 09:32:34 79.46, 54.09 70.49 08/29/2019 09:33:19 79.45, 53.94 70.48 3.06 45
8 08/29/2019 10:23:16 -79.43,-138.79 109.54 08/29/2019 10:24:14 -79.46,-138.88 109.51 3.51 58




NCC Satellite Simultaneous Nadir Overpasses (SNOs) Prediction Service
